Weather History for Monroe, MI

Change the Weather History Date:

Thursday, February 23, 2012

  Actual Average Record
Temperature  
Mean Temperature 38 °F -  
Max Temperature 42 °F 40 °F 60 °F (1984)
Min Temperature 33 °F 24 °F 2 °F (1978)
Degree Days  
Heating Degree Days 28    
Moisture  
Dew Point 34 °F    
Average Humidity 90    
Maximum Humidity 100    
Minimum Humidity 70    
Precipitation  
Precipitation 0.00 in - - ()
Sea Level Pressure  
Sea Level Pressure 29.54 in    
Wind  
Wind Speed 5 mph (SW)    
Max Wind Speed 12 mph    
Max Gust Speed -    
Visibility 6 miles    
Events Rain    
Averages and records for this station are not official NWS values.
T = Trace of Precipitation, MM = Missing Value Source: NWS Daily Summary

Daily Weather History Graph

Daily Weather History Graph

Search for Another Location

Airport:

Trip Planner

Search our weather history database for the weather conditions in past years. The results will help you decide how hot, cold, wet, or windy it might be!

Date:

Astronomy

Feb. 23, 2012 Rise Set
Actual Time 7:18 AM EST 6:16 PM EST
Civil Twilight 6:50 AM EST 6:44 PM EST
Nautical Twilight 6:18 AM EST 7:16 PM EST
Astronomical Twilight 5:45 AM EST 7:49 PM EST
Moon 7:42 AM EST (2/23) 8:23 PM EST (2/23)
Length of Visible Light 11h 53m
Length of Day
10h 57m
Waxing Crescent, 3% of the Moon is Illuminated
Feb 23
Waxing Crescent
Feb 29
First Quarter
Mar 8
Full
Mar 14
Last Quarter
Mar 22
New

Hourly Weather History & Observations

Time (EST) Temp. Windchill Dew Point Humidity Pressure Visibility Wind Dir Wind Speed Gust Speed Precip Events Conditions
12:12 AM 33.8 °F 30.8 °F 33.8 °F 100% 29.43 in 3.0 mi SSW 3.5 mph - N/A   Overcast
12:32 AM 33.8 °F 29.6 °F 33.8 °F 100% 29.43 in 3.0 mi South 4.6 mph - N/A   Overcast
12:52 AM 33.8 °F 30.8 °F 33.8 °F 100% 29.44 in 3.0 mi SW 3.5 mph - N/A   Overcast
1:12 AM 33.8 °F - 33.8 °F 100% 29.44 in 3.0 mi Calm Calm - N/A   Overcast
1:32 AM 33.8 °F - 33.8 °F 100% 29.44 in 2.5 mi Calm Calm - N/A   Overcast
1:52 AM 33.8 °F 29.6 °F 33.8 °F 100% 29.44 in 2.5 mi SSW 4.6 mph - N/A   Overcast
2:12 AM 33.8 °F 29.6 °F 33.8 °F 100% 29.45 in 2.5 mi SSW 4.6 mph - N/A   Overcast
2:32 AM 33.8 °F 28.6 °F 33.8 °F 100% 29.45 in 1.8 mi SW 5.8 mph - N/A   Overcast
2:53 AM 33.8 °F 28.6 °F 33.8 °F 100% 29.45 in 2.5 mi West 5.8 mph - N/A   Overcast
3:13 AM 33.8 °F 28.6 °F 33.8 °F 100% 29.45 in 2.5 mi WNW 5.8 mph - N/A   Overcast
3:33 AM 33.8 °F 28.6 °F 33.8 °F 100% 29.45 in 2.5 mi West 5.8 mph - N/A   Overcast
3:53 AM 33.8 °F 28.6 °F 33.8 °F 100% 29.46 in 2.5 mi West 5.8 mph - N/A   Overcast
4:13 AM 33.8 °F 27.0 °F 33.8 °F 100% 29.48 in 3.0 mi West 8.1 mph - N/A   Overcast
4:33 AM 33.8 °F 27.0 °F 33.8 °F 100% 29.49 in 4.0 mi West 8.1 mph - N/A   Overcast
4:53 AM 33.8 °F 27.0 °F 33.8 °F 100% 29.49 in 5.0 mi West 8.1 mph - N/A   Overcast
5:13 AM 35.6 °F 29.2 °F 35.6 °F 100% 29.50 in 5.0 mi West 8.1 mph - N/A   Overcast
5:33 AM 33.8 °F 28.6 °F 33.8 °F 100% 29.50 in 5.0 mi West 5.8 mph - N/A   Overcast
5:54 AM 33.8 °F 27.0 °F 33.8 °F 100% 29.51 in 7.0 mi West 8.1 mph - N/A   Overcast
6:14 AM 35.6 °F 29.9 °F 35.6 °F 100% 29.52 in 7.0 mi West 6.9 mph - N/A   Overcast
6:34 AM 33.8 °F 28.6 °F 33.8 °F 100% 29.54 in 7.0 mi WSW 5.8 mph - N/A   Overcast
6:54 AM 33.8 °F 29.6 °F 33.8 °F 100% 29.54 in 7.0 mi WSW 4.6 mph - N/A   Overcast
7:14 AM 33.8 °F 29.6 °F 33.8 °F 100% 29.56 in 5.0 mi SW 4.6 mph - N/A   Mostly Cloudy
7:34 AM 33.8 °F 30.8 °F 33.8 °F 100% 29.56 in 3.0 mi SW 3.5 mph - N/A   Scattered Clouds
7:54 AM 33.8 °F - 33.8 °F 100% 29.57 in 4.0 mi Calm Calm - N/A   Clear
8:14 AM 33.8 °F - 33.8 °F 100% 29.58 in 3.0 mi Calm Calm - N/A   Clear
8:35 AM 33.8 °F 30.8 °F 33.8 °F 100% 29.59 in 3.0 mi SW 3.5 mph - N/A   Clear
8:55 AM 35.6 °F 32.8 °F 35.6 °F 100% 29.59 in 3.0 mi WSW 3.5 mph - N/A   Clear
9:15 AM 37.4 °F 33.8 °F 37.4 °F 100% 29.59 in 5.0 mi West 4.6 mph - N/A   Clear
9:35 AM 37.4 °F 32.8 °F 37.4 °F 100% 29.59 in 5.0 mi WNW 5.8 mph - N/A   Clear
9:55 AM 37.4 °F 32.8 °F 37.4 °F 100% 29.59 in 7.0 mi West 5.8 mph - N/A   Scattered Clouds
10:15 AM 37.4 °F 34.9 °F 37.4 °F 100% 29.59 in 7.0 mi WNW 3.5 mph - N/A   Scattered Clouds
10:35 AM 39.2 °F 37.0 °F 37.4 °F 93% 29.59 in 7.0 mi West 3.5 mph - N/A   Scattered Clouds
10:55 AM 39.2 °F - 35.6 °F 87% 29.58 in 7.0 mi Calm Calm - N/A   Scattered Clouds
11:10 AM 39.2 °F - 33.8 °F 81% 29.59 in 10.0 mi Calm Calm - N/A   Scattered Clouds
11:31 AM 39.2 °F - 33.8 °F 81% 29.60 in 7.0 mi Calm Calm - N/A   Clear
11:51 AM 41.0 °F 37.1 °F 33.8 °F 76% 29.60 in 10.0 mi SSW 5.8 mph - N/A   Clear
12:11 PM 42.8 °F 39.3 °F 33.8 °F 70% 29.60 in 10.0 mi South 5.8 mph - N/A   Scattered Clouds
12:31 PM 42.8 °F 40.1 °F 33.8 °F 70% 29.60 in 10.0 mi South 4.6 mph - N/A   Mostly Cloudy
12:51 PM 42.8 °F 38.0 °F 33.8 °F 70% 29.61 in 10.0 mi SSW 8.1 mph - N/A   Scattered Clouds
1:11 PM 42.8 °F 37.0 °F 35.6 °F 76% 29.63 in 7.0 mi South 10.4 mph - N/A   Scattered Clouds
1:31 PM 42.8 °F 36.6 °F 33.8 °F 70% 29.62 in 7.0 mi South 11.5 mph - N/A   Scattered Clouds
1:51 PM 42.8 °F 37.5 °F 35.6 °F 76% 29.61 in 7.0 mi SSE 9.2 mph - N/A   Clear
2:11 PM 42.8 °F 38.6 °F 35.6 °F 76% 29.59 in 7.0 mi South 6.9 mph - N/A   Clear
2:32 PM 42.8 °F 38.0 °F 33.8 °F 70% 29.59 in 10.0 mi South 8.1 mph - N/A   Clear
2:52 PM 42.8 °F 39.3 °F 33.8 °F 70% 29.58 in 10.0 mi SSE 5.8 mph - N/A   Clear
3:12 PM 41.0 °F 37.1 °F 33.8 °F 76% 29.58 in 10.0 mi SSE 5.8 mph - N/A   Scattered Clouds
3:32 PM 41.0 °F 37.1 °F 33.8 °F 76% 29.58 in 10.0 mi SE 5.8 mph - N/A   Clear
3:52 PM 41.0 °F 38.0 °F 33.8 °F 76% 29.58 in 10.0 mi SE 4.6 mph - N/A   Scattered Clouds
4:12 PM 41.0 °F 39.0 °F 33.8 °F 76% 29.58 in 7.0 mi ESE 3.5 mph - N/A   Scattered Clouds
4:32 PM 41.0 °F - 32.0 °F 70% 29.58 in 10.0 mi Calm Calm - N/A   Scattered Clouds
4:52 PM 41.0 °F 38.0 °F 33.8 °F 76% 29.58 in 10.0 mi East 4.6 mph - N/A   Scattered Clouds
5:12 PM 39.2 °F 37.0 °F 33.8 °F 81% 29.57 in 10.0 mi East 3.5 mph - N/A   Mostly Cloudy
5:33 PM 39.2 °F 35.9 °F 33.8 °F 81% 29.56 in 7.0 mi East 4.6 mph - N/A   Overcast
5:53 PM 39.2 °F 34.2 °F 35.6 °F 87% 29.56 in 7.0 mi East 6.9 mph - N/A   Overcast
6:13 PM 37.4 °F 32.1 °F 35.6 °F 93% 29.55 in 7.0 mi East 6.9 mph - N/A   Overcast
6:33 PM 37.4 °F 32.1 °F 35.6 °F 93% 29.57 in 7.0 mi East 6.9 mph - N/A   Overcast
6:53 PM 37.4 °F 32.8 °F 35.6 °F 93% 29.58 in 7.0 mi ENE 5.8 mph - N/A   Overcast
7:13 PM 37.4 °F 30.8 °F 33.8 °F 87% 29.58 in 7.0 mi East 9.2 mph - N/A Rain Light Rain
7:33 PM 37.4 °F 31.4 °F 33.8 °F 87% 29.58 in 7.0 mi East 8.1 mph - N/A   Light Drizzle
7:53 PM 37.4 °F 32.1 °F 33.8 °F 87% 29.58 in 7.0 mi East 6.9 mph - N/A Rain Light Rain
8:13 PM 37.4 °F 30.3 °F 35.6 °F 93% 29.56 in 5.0 mi ENE 10.4 mph - N/A Rain Rain
8:34 PM 37.4 °F 32.1 °F 35.6 °F 93% 29.56 in 7.0 mi ENE 6.9 mph - N/A   Overcast
8:54 PM 37.4 °F 31.4 °F 35.6 °F 93% 29.55 in 7.0 mi ENE 8.1 mph - N/A Rain Light Rain
9:14 PM 37.4 °F 30.8 °F 35.6 °F 93% 29.54 in 7.0 mi ENE 9.2 mph - N/A   Light Drizzle
9:34 PM 37.4 °F 32.8 °F 35.6 °F 93% 29.56 in 7.0 mi ENE 5.8 mph - N/A Rain Light Rain
9:54 PM 35.6 °F 29.9 °F 35.6 °F 100% 29.56 in 5.0 mi East 6.9 mph - N/A Rain Light Rain
10:34 PM 33.8 °F 26.4 °F 33.8 °F 100% 29.55 in 1.2 mi East 9.2 mph 17.3 mph N/A Snow Light Snow
10:54 PM 33.8 °F 27.0 °F 33.8 °F 100% 29.55 in 1.5 mi East 8.1 mph - N/A Snow Light Snow
11:34 PM 33.8 °F 27.7 °F 33.8 °F 100% 29.53 in 1.0 mi ENE 6.9 mph - N/A Snow Snow
11:55 PM 33.8 °F 27.0 °F 33.8 °F 100% 29.52 in 0.8 mi NE 8.1 mph - N/A Snow Snow